date(mm/dd/yyyy),time(HH:MM:SS.SSS),time (unix sec),lat (dec. deg.), lon (dec. deg.), depth (m), alt (m)  
03/10/2017,18:26:11.950,1489170371.950,-5.633858666667,-173.839678833333,  49.1,  nan 
03/10/2017,18:26:19.266,1489170379.266,-5.633856166667,-173.839683666667,  49.0,  nan 
03/10/2017,18:26:26.800,1489170386.800,-5.633861000000,-173.839693833333,  48.9,  nan 
03/10/2017,18:26:34.341,1489170394.341,-5.633859333333,-173.839699666667,  48.6,  nan 
03/10/2017,18:26:41.653,1489170401.653,-5.633865166667,-173.839714833333,  48.8,  nan 
03/10/2017,18:26:49.082,1489170409.082,-5.633866666667,-173.839716000000,  50.5,  nan 
03/10/2017,18:26:56.396,1489170416.396,-5.633876333333,-173.839707333333,  53.8,  nan 
03/10/2017,18:27:03.931,1489170423.931,-5.633863166667,-173.839705500000,  57.6,  nan 
03/10/2017,18:27:11.254,1489170431.254,-5.633860333333,-173.839712333333,  61.6,  nan 
03/10/2017,18:27:18.673,1489170438.673,-5.633837166667,-173.839710166667,  65.0,  nan 
03/10/2017,18:27:40.841,1489170460.841,-5.633826000000,-173.839727666667,  76.7,  nan 
03/10/2017,18:27:48.272,1489170468.272,-5.633820166667,-173.839740333333,  80.7,  nan 
03/10/2017,18:27:55.585,1489170475.585,-5.633806166667,-173.839763333333,  85.0,  nan 
03/10/2017,18:28:03.118,1489170483.118,-5.633814000000,-173.839777000000,  89.1,  nan 
03/10/2017,18:28:10.438,1489170490.438,-5.633807500000,-173.839792333333,  93.2,  nan 
03/10/2017,18:28:17.972,1489170497.972,-5.633810666667,-173.839802166667,  97.1,  nan 
03/10/2017,18:28:25.400,1489170505.400,-5.633806666667,-173.839815333333, 100.9,  nan 
03/10/2017,18:28:32.714,1489170512.714,-5.633813000000,-173.839830500000, 104.2,  nan 
03/10/2017,18:28:40.250,1489170520.250,-5.633827333333,-173.839849333333, 107.7,  nan 
03/10/2017,18:28:47.590,1489170527.590,-5.633841000000,-173.839867333333, 111.0,  nan 
03/10/2017,18:28:54.994,1489170534.994,-5.633854166667,-173.839868666667, 114.1,  nan 
03/10/2017,18:29:02.309,1489170542.309,-5.633860000000,-173.839878500000, 117.0,  nan 
03/10/2017,18:29:09.847,1489170549.847,-5.633867333333,-173.839880833333, 120.0,  nan 
03/10/2017,18:29:17.158,1489170557.158,-5.633881333333,-173.839877166667, 122.9,  nan 
03/10/2017,18:29:24.699,1489170564.699,-5.633869166667,-173.839880166667, 126.1,  nan 
03/10/2017,18:29:31.901,1489170571.901,-5.633869000000,-173.839881500000, 129.2,  nan 
03/10/2017,18:29:39.441,1489170579.441,-5.633872833333,-173.839878500000, 132.2,  nan 
03/10/2017,18:29:46.755,1489170586.755,-5.633871500000,-173.839875500000, 135.2,  nan 
03/10/2017,18:29:54.289,1489170594.289,-5.633865666667,-173.839873833333, 138.6,  nan 
03/10/2017,18:30:01.605,1489170601.605,-5.633852500000,-173.839881500000, 142.0,  nan 
03/10/2017,18:30:09.030,1489170609.030,-5.633845833333,-173.839879333333, 145.9,  nan 
03/10/2017,18:30:16.567,1489170616.567,-5.633841500000,-173.839879833333, 150.2,  nan 
03/10/2017,18:30:23.883,1489170623.883,-5.633834666667,-173.839883333333, 154.0,  nan 
03/10/2017,18:30:31.416,1489170631.416,-5.633837166667,-173.839893666667, 158.2,  nan 
03/10/2017,18:30:38.629,1489170638.629,-5.633819833333,-173.839891666667, 162.1,  nan 
03/10/2017,18:30:46.159,1489170646.159,-5.633816666667,-173.839899833333, 166.4,  nan 
03/10/2017,18:30:53.476,1489170653.476,-5.633791333333,-173.839894500000, 170.2,  nan 
03/10/2017,18:31:01.012,1489170661.012,-5.633797833333,-173.839898500000, 174.3,  nan 
03/10/2017,18:31:08.331,1489170668.331,-5.633775166667,-173.839892333333, 178.2,  nan 
03/10/2017,18:31:15.759,1489170675.759,-5.633764333333,-173.839908833333, 182.3,  nan 
03/10/2017,18:31:23.070,1489170683.070,-5.633768833333,-173.839915500000, 186.3,  nan 
03/10/2017,18:31:30.609,1489170690.609,-5.633777333333,-173.839921666667, 190.7,  nan 
03/10/2017,18:31:37.921,1489170697.921,-5.633773166667,-173.839923500000, 194.5,  nan 
03/10/2017,18:31:45.352,1489170705.352,-5.633771500000,-173.839923166667, 198.8,  nan 
03/10/2017,18:31:52.665,1489170712.665,-5.633780500000,-173.839918000000, 202.6,  nan 
03/10/2017,18:32:00.197,1489170720.197,-5.633779000000,-173.839913666667, 207.0,  nan 
03/10/2017,18:32:07.515,1489170727.515,-5.633784666667,-173.839907166667, 211.1,  nan 
03/10/2017,18:32:15.049,1489170735.049,-5.633792833333,-173.839896166667, 215.5,  nan 
03/10/2017,18:32:22.478,1489170742.478,-5.633781833333,-173.839893000000, 219.7,  nan 
03/10/2017,18:32:29.796,1489170749.796,-5.633788500000,-173.839880666667, 224.1,  nan 
03/10/2017,18:32:37.331,1489170757.331,-5.633784000000,-173.839868166667, 228.5,  nan 
03/10/2017,18:32:44.642,1489170764.642,-5.633805666667,-173.839867166667, 233.0,  nan 
03/10/2017,18:32:51.959,1489170771.959,-5.633808500000,-173.839858333333, 237.1,  nan 
03/10/2017,18:32:59.386,1489170779.386,-5.633803833333,-173.839846000000, 241.6,  nan 
03/10/2017,18:33:06.923,1489170786.923,-5.633807166667,-173.839835333333, 245.8,  nan 
03/10/2017,18:33:14.235,1489170794.235,-5.633797666667,-173.839829333333, 250.3,  nan 
03/10/2017,18:33:21.775,1489170801.775,-5.633790333333,-173.839816333333, 255.0,  nan 
03/10/2017,18:33:28.984,1489170808.984,-5.633785166667,-173.839805500000, 259.4,  nan 
03/10/2017,18:33:36.513,1489170816.513,-5.633778666667,-173.839794166667, 264.1,  nan 
03/10/2017,18:33:43.831,1489170823.831,-5.633766666667,-173.839788333333, 268.6,  nan 
03/10/2017,18:33:51.366,1489170831.366,-5.633767666667,-173.839776500000, 273.3,  nan 
03/10/2017,18:33:58.686,1489170838.686,-5.633757666667,-173.839761333333, 277.9,  nan 
03/10/2017,18:34:06.110,1489170846.110,-5.633765333333,-173.839743000000, 282.3,  nan 
03/10/2017,18:34:13.643,1489170853.643,-5.633765500000,-173.839723333333, 287.1,  nan 
03/10/2017,18:34:20.960,1489170860.960,-5.633761166667,-173.839716500000, 290.6,  nan 
03/10/2017,18:34:28.494,1489170868.494,-5.633749333333,-173.839702666667, 294.1,  nan 
03/10/2017,18:34:35.704,1489170875.704,-5.633751500000,-173.839688333333, 297.5,  nan 
03/10/2017,18:34:43.243,1489170883.243,-5.633756833333,-173.839690333333, 300.6,  nan 
03/10/2017,18:34:50.553,1489170890.553,-5.633755666667,-173.839683000000, 304.1,  nan 
03/10/2017,18:34:58.090,1489170898.090,-5.633763500000,-173.839703500000, 307.1,  nan 
03/10/2017,18:35:05.407,1489170905.407,-5.633766333333,-173.839687500000, 310.5,  nan 
03/10/2017,18:35:12.833,1489170912.833,-5.633770666667,-173.839685166667, 313.5,  nan 
03/10/2017,18:35:20.150,1489170920.150,-5.633765500000,-173.839682500000, 316.5,  nan 
03/10/2017,18:35:27.686,1489170927.686,-5.633762500000,-173.839689333333, 319.4,  nan 
03/10/2017,18:35:35.001,1489170935.001,-5.633760000000,-173.839693833333, 322.6,  nan 
03/10/2017,18:35:42.426,1489170942.426,-5.633761166667,-173.839679333333, 325.4,  nan 
03/10/2017,18:35:49.741,1489170949.741,-5.633757833333,-173.839663000000, 328.2,  nan 
03/10/2017,18:35:57.279,1489170957.279,-5.633767000000,-173.839661000000, 331.0,  nan 
03/10/2017,18:36:04.594,1489170964.594,-5.633760666667,-173.839670000000, 333.9,  nan 
03/10/2017,18:36:12.127,1489170972.127,-5.633756166667,-173.839663166667, 336.7,  nan 
03/10/2017,18:36:19.557,1489170979.557,-5.633750833333,-173.839649666667, 339.7,  nan 
03/10/2017,18:36:26.870,1489170986.870,-5.633742500000,-173.839645500000, 342.5,  nan 
03/10/2017,18:36:34.408,1489170994.408,-5.633753833333,-173.839626000000, 345.6,  nan 
03/10/2017,18:36:41.722,1489171001.722,-5.633771500000,-173.839650166667, 348.5,  nan 
03/10/2017,18:36:49.147,1489171009.147,-5.633730833333,-173.839625166667, 351.7,  nan 
03/10/2017,18:36:56.466,1489171016.466,-5.633740666667,-173.839631500000, 354.7,  nan 
03/10/2017,18:37:04.000,1489171024.000,-5.633752833333,-173.839618500000, 358.1,  nan 
03/10/2017,18:37:11.319,1489171031.319,-5.633741166667,-173.839611500000, 361.3,  nan 
03/10/2017,18:37:18.851,1489171038.851,-5.633732333333,-173.839603166667, 365.1,  nan 
03/10/2017,18:37:26.069,1489171046.069,-5.633730666667,-173.839587500000, 368.6,  nan 
03/10/2017,18:37:33.597,1489171053.597,-5.633727666667,-173.839579833333, 372.5,  nan 
03/10/2017,18:37:40.938,1489171060.938,-5.633713666667,-173.839580833333, 376.3,  nan 
03/10/2017,18:37:48.445,1489171068.445,-5.633698666667,-173.839563000000, 379.9,  nan 
03/10/2017,18:37:55.764,1489171075.764,-5.633696166667,-173.839570333333, 383.9,  nan 
03/10/2017,18:38:03.192,1489171083.192,-5.633686666667,-173.839554333333, 388.1,  nan 
03/10/2017,18:38:10.724,1489171090.724,-5.633683333333,-173.839544333333, 392.5,  nan 
03/10/2017,18:38:18.041,1489171098.041,-5.633672000000,-173.839551166667, 396.8,  nan 
03/10/2017,18:38:25.574,1489171105.574,-5.633674833333,-173.839539000000, 401.3,  nan 
03/10/2017,18:38:32.782,1489171112.782,-5.633673000000,-173.839529000000, 405.5,  nan 
03/10/2017,18:38:40.321,1489171120.321,-5.633671166667,-173.839524166667, 409.8,  nan 
03/10/2017,18:38:47.636,1489171127.636,-5.633668666667,-173.839522500000, 414.2,  nan 
03/10/2017,18:38:55.168,1489171135.168,-5.633654166667,-173.839517666667, 418.8,  nan 
03/10/2017,18:39:02.489,1489171142.489,-5.633653333333,-173.839494000000, 423.0,  nan 
03/10/2017,18:39:09.911,1489171149.911,-5.633639333333,-173.839494500000, 427.5,  nan 
03/10/2017,18:39:17.226,1489171157.226,-5.633636000000,-173.839485500000, 431.8,  nan 
03/10/2017,18:39:24.763,1489171164.763,-5.633632333333,-173.839478000000, 436.3,  nan 
03/10/2017,18:39:32.077,1489171172.077,-5.633638500000,-173.839498333333, 440.8,  nan 
03/10/2017,18:39:39.504,1489171179.504,-5.633634500000,-173.839478833333, 445.1,  nan 
03/10/2017,18:39:46.823,1489171186.823,-5.633630666667,-173.839475000000, 449.4,  nan 
03/10/2017,18:39:54.356,1489171194.356,-5.633623000000,-173.839446000000, 453.8,  nan 
03/10/2017,18:40:01.674,1489171201.674,-5.633621000000,-173.839459833333, 458.0,  nan 
03/10/2017,18:40:09.207,1489171209.207,-5.633626833333,-173.839462833333, 462.4,  nan 
03/10/2017,18:40:16.414,1489171216.414,-5.633611000000,-173.839485166667, 466.5,  nan 
03/10/2017,18:40:23.951,1489171223.951,-5.633622666667,-173.839449000000, 471.0,  nan 
03/10/2017,18:40:31.484,1489171231.484,-5.633625166667,-173.839426166667, 475.0,  nan 
03/10/2017,18:40:38.801,1489171238.801,-5.633632500000,-173.839439500000, 479.4,  nan 
03/10/2017,18:40:46.230,1489171246.230,-5.633620666667,-173.839433166667, 483.2,  nan 
03/10/2017,18:40:53.544,1489171253.544,-5.633621000000,-173.839423833333, 487.1,  nan 
03/10/2017,18:41:01.078,1489171261.078,-5.633622000000,-173.839409500000, 491.4,  nan 
03/10/2017,18:41:08.397,1489171268.397,-5.633609666667,-173.839408333333, 495.8,  nan 
03/10/2017,18:41:15.936,1489171275.936,-5.633608000000,-173.839396666667, 499.8,  nan 
03/10/2017,18:41:23.141,1489171283.141,-5.633607833333,-173.839390333333, 503.9,  nan 
03/10/2017,18:41:30.677,1489171290.677,-5.633601000000,-173.839396000000, 507.9,  nan 
03/10/2017,18:41:37.990,1489171297.990,-5.633597333333,-173.839389166667, 512.2,  nan 
03/10/2017,18:41:45.528,1489171305.528,-5.633602833333,-173.839383333333, 516.2,  nan 
03/10/2017,18:41:52.846,1489171312.846,-5.633578833333,-173.839368333333, 520.5,  nan 
03/10/2017,18:42:00.267,1489171320.267,-5.633575833333,-173.839352500000, 524.5,  nan 
03/10/2017,18:42:07.583,1489171327.583,-5.633565833333,-173.839349333333, 528.6,  nan 
03/10/2017,18:42:15.123,1489171335.123,-5.633554333333,-173.839334500000, 532.9,  nan 
03/10/2017,18:42:22.657,1489171342.657,-5.633550166667,-173.839332333333, 536.8,  nan 
03/10/2017,18:42:29.861,1489171349.861,-5.633542000000,-173.839332833333, 540.6,  nan 
03/10/2017,18:42:37.394,1489171357.394,-5.633548166667,-173.839328166667, 545.0,  nan 
03/10/2017,18:42:44.714,1489171364.714,-5.633543166667,-173.839313500000, 548.9,  nan 
03/10/2017,18:42:52.249,1489171372.249,-5.633552500000,-173.839319833333, 553.3,  nan 
03/10/2017,18:42:59.564,1489171379.564,-5.633535166667,-173.839304333333, 557.3,  nan 
03/10/2017,18:43:06.989,1489171386.989,-5.633524333333,-173.839301000000, 561.4,  nan 
03/10/2017,18:43:14.309,1489171394.309,-5.633533333333,-173.839300333333, 565.4,  nan 
03/10/2017,18:43:21.841,1489171401.841,-5.633513333333,-173.839267666667, 569.4,  nan 
03/10/2017,18:43:29.163,1489171409.163,-5.633514666667,-173.839277333333, 573.2,  nan 
03/10/2017,18:43:36.585,1489171416.585,-5.633479333333,-173.839252500000, 577.1,  nan 
03/10/2017,18:43:43.906,1489171423.906,-5.633510333333,-173.839260833333, 581.0,  nan 
03/10/2017,18:43:51.441,1489171431.441,-5.633505666667,-173.839264333333, 585.1,  nan 
03/10/2017,18:43:58.753,1489171438.753,-5.633507500000,-173.839230666667, 588.7,  nan 
03/10/2017,18:44:06.288,1489171446.288,-5.633495166667,-173.839235166667, 592.7,  nan 
03/10/2017,18:44:13.711,1489171453.711,-5.633487666667,-173.839219166667, 596.8,  nan 
03/10/2017,18:44:21.033,1489171461.033,-5.633486500000,-173.839208666667, 600.9,  nan 
03/10/2017,18:44:28.565,1489171468.565,-5.633486833333,-173.839205500000, 604.7,  nan 
03/10/2017,18:44:35.882,1489171475.882,-5.633487333333,-173.839195000000, 608.5,  nan 
03/10/2017,18:44:43.304,1489171483.304,-5.633484333333,-173.839190166667, 612.5,  nan 
03/10/2017,18:44:50.623,1489171490.623,-5.633481166667,-173.839191333333, 616.2,  nan 
03/10/2017,18:44:58.160,1489171498.160,-5.633472666667,-173.839176000000, 620.4,  nan 
03/10/2017,18:45:05.478,1489171505.478,-5.633473166667,-173.839166833333, 623.8,  nan 
03/10/2017,18:45:13.008,1489171513.008,-5.633483666667,-173.839182333333, 627.9,  nan 
03/10/2017,18:45:20.215,1489171520.215,-5.633471833333,-173.839151833333, 631.2,  nan 
03/10/2017,18:45:27.750,1489171527.750,-5.633486166667,-173.839158000000, 635.3,  nan 
03/10/2017,18:45:35.067,1489171535.067,-5.633487500000,-173.839160666667, 638.7,  nan 
03/10/2017,18:45:42.606,1489171542.606,-5.633498166667,-173.839154166667, 642.9,  nan 
03/10/2017,18:45:49.919,1489171549.919,-5.633489666667,-173.839149833333, 646.2,  nan 
03/10/2017,18:45:57.346,1489171557.346,-5.633474666667,-173.839142666667, 650.2,  nan 
03/10/2017,18:46:04.666,1489171564.666,-5.633470000000,-173.839124000000, 653.7,  nan 
03/10/2017,18:46:12.196,1489171572.196,-5.633470833333,-173.839117333333, 657.9,  nan 
03/10/2017,18:46:19.735,1489171579.735,-5.633468166667,-173.839104333333, 661.5,  nan 
03/10/2017,18:46:26.941,1489171586.941,-5.633450500000,-173.839095333333, 665.3,  nan 
03/10/2017,18:46:34.476,1489171594.476,-5.633458833333,-173.839090000000, 669.1,  nan 
03/10/2017,18:46:41.795,1489171601.795,-5.633454166667,-173.839078333333, 672.8,  nan 
03/10/2017,18:46:49.324,1489171609.324,-5.633456666667,-173.839064500000, 676.9,  nan 
03/10/2017,18:46:56.754,1489171616.754,-5.633452166667,-173.839069333333, 680.5,  nan 
03/10/2017,18:47:04.073,1489171624.073,-5.633445000000,-173.839057500000, 684.4,  nan 
03/10/2017,18:47:11.388,1489171631.388,-5.633426000000,-173.839046500000, 687.9,  nan 
03/10/2017,18:47:18.922,1489171638.922,-5.633433000000,-173.839043666667, 691.8,  nan 
03/10/2017,18:47:26.238,1489171646.238,-5.633459000000,-173.839050333333, 695.3,  nan 
03/10/2017,18:47:33.666,1489171653.666,-5.633414666667,-173.839058833333, 699.4,  nan 
03/10/2017,18:47:41.201,1489171661.201,-5.633425833333,-173.839040833333, 702.9,  nan 
03/10/2017,18:47:48.518,1489171668.518,-5.633416000000,-173.839049833333, 706.5,  nan 
03/10/2017,18:47:56.053,1489171676.053,-5.633416000000,-173.839021166667, 710.5,  nan 
03/10/2017,18:48:03.257,1489171683.257,-5.633408166667,-173.839036666667, 714.3,  nan 
03/10/2017,18:48:10.793,1489171690.793,-5.633415500000,-173.839026500000, 718.2,  nan 
03/10/2017,18:48:18.029,1489171698.029,-5.633409833333,-173.839020000000, 722.1,  nan 
03/10/2017,18:48:25.569,1489171705.569,-5.633392833333,-173.839013666667, 725.9,  nan 
03/10/2017,18:48:32.993,1489171712.993,-5.633381666667,-173.839004000000, 729.7,  nan 
03/10/2017,18:48:40.307,1489171720.307,-5.633376166667,-173.839007666667, 733.5,  nan 
03/10/2017,18:48:47.846,1489171727.846,-5.633380333333,-173.839010833333, 737.6,  nan 
03/10/2017,18:48:55.161,1489171735.161,-5.633360833333,-173.839023000000, 740.8,  nan 
03/10/2017,18:49:02.699,1489171742.699,-5.633305833333,-173.838957500000, 744.9,  nan 
03/10/2017,18:49:09.905,1489171749.905,-5.633373333333,-173.838997166667, 748.5,  nan 
03/10/2017,18:49:17.434,1489171757.434,-5.633348833333,-173.839021166667, 752.6,  nan 
03/10/2017,18:49:24.755,1489171764.755,-5.633351166667,-173.838977000000, 756.1,  nan 
03/10/2017,18:49:32.290,1489171772.290,-5.633381000000,-173.838994666667, 760.3,  nan 
03/10/2017,18:49:39.610,1489171779.610,-5.633354666667,-173.838968333333, 763.8,  nan 
03/10/2017,18:49:47.034,1489171787.034,-5.633334500000,-173.838953333333, 767.7,  nan 
03/10/2017,18:49:54.347,1489171794.347,-5.633318833333,-173.838938500000, 771.5,  nan 
03/10/2017,18:50:01.806,1489171801.806,-5.633297000000,-173.838941833333, 775.5,  nan 
03/10/2017,18:50:09.231,1489171809.231,-5.633304500000,-173.838955166667, 779.3,  nan 
03/10/2017,18:50:16.766,1489171816.766,-5.633318333333,-173.838941833333, 783.4,  nan 
03/10/2017,18:50:24.081,1489171824.081,-5.633292000000,-173.838908166667, 787.3,  nan 
03/10/2017,18:50:31.615,1489171831.615,-5.633283500000,-173.838907166667, 791.2,  nan 
03/10/2017,18:50:38.933,1489171838.933,-5.633287666667,-173.838919500000, 795.4,  nan 
03/10/2017,18:50:46.357,1489171846.357,-5.633257666667,-173.838885333333, 799.1,  nan 
03/10/2017,18:50:53.679,1489171853.679,-5.633262166667,-173.838898000000, 803.1,  nan 
03/10/2017,18:51:01.215,1489171861.215,-5.633268333333,-173.838891666667, 807.2,  nan 
03/10/2017,18:51:08.529,1489171868.529,-5.633252333333,-173.838872833333, 811.1,  nan 
03/10/2017,18:51:15.951,1489171875.951,-5.633241000000,-173.838897333333, 815.1,  nan 
03/10/2017,18:51:23.378,1489171883.378,-5.633226166667,-173.838887500000, 819.0,  nan 
03/10/2017,18:51:30.803,1489171890.803,-5.633226000000,-173.838879166667, 823.0,  nan 
03/10/2017,18:51:38.122,1489171898.122,-5.633209666667,-173.838891500000, 826.8,  nan 
03/10/2017,18:51:45.660,1489171905.660,-5.633245333333,-173.838890500000, 830.8,  nan 
03/10/2017,18:51:52.863,1489171912.863,-5.633198666667,-173.838861833333, 834.8,  nan 
03/10/2017,18:52:00.400,1489171920.400,-5.633192166667,-173.838852333333, 838.7,  nan 
03/10/2017,18:52:07.936,1489171927.936,-5.633165000000,-173.838839166667, 843.1,  nan 
03/10/2017,18:52:15.249,1489171935.249,-5.633178500000,-173.838831166667, 846.8,  nan 
03/10/2017,18:52:22.675,1489171942.675,-5.633193666667,-173.838860333333, 851.0,  nan 
03/10/2017,18:52:29.994,1489171949.994,-5.633158000000,-173.838838166667, 854.8,  nan 
03/10/2017,18:52:37.528,1489171957.528,-5.633183833333,-173.838860500000, 859.2,  nan 
03/10/2017,18:52:44.845,1489171964.845,-5.633163333333,-173.838848000000, 863.1,  nan 
03/10/2017,18:52:52.379,1489171972.379,-5.633137833333,-173.838830000000, 867.2,  nan 
03/10/2017,18:52:59.588,1489171979.588,-5.633136000000,-173.838816500000, 871.3,  nan 
03/10/2017,18:53:07.123,1489171987.123,-5.633141000000,-173.838809500000, 875.8,  nan 
03/10/2017,18:53:14.443,1489171994.443,-5.633148833333,-173.838750333333, 880.0,  nan 
03/10/2017,18:53:21.977,1489172001.977,-5.633077500000,-173.838783000000, 884.6,  nan 
03/10/2017,18:53:29.288,1489172009.288,-5.633101166667,-173.838764500000, 888.7,  nan 
03/10/2017,18:53:36.720,1489172016.720,-5.633097166667,-173.838758000000, 893.2,  nan 
03/10/2017,18:53:44.036,1489172024.036,-5.633071833333,-173.838766166667, 897.5,  nan 
03/10/2017,18:53:51.566,1489172031.566,-5.633095500000,-173.838755166667, 901.8,  nan 
03/10/2017,18:53:59.106,1489172039.106,-5.633083500000,-173.838770500000, 906.2,  nan 
03/10/2017,18:54:06.312,1489172046.312,-5.633059666667,-173.838731500000, 910.7,  nan 
03/10/2017,18:54:13.843,1489172053.843,-5.633074500000,-173.838770666667, 915.0,  nan 
03/10/2017,18:54:21.377,1489172061.377,-5.633044000000,-173.838747000000, 919.8,  nan 
03/10/2017,18:54:28.701,1489172068.701,-5.633015833333,-173.838736333333, 924.0,  nan 
03/10/2017,18:54:36.127,1489172076.127,-5.633081333333,-173.838766166667, 928.7,  nan 
03/10/2017,18:54:43.441,1489172083.441,-5.633008833333,-173.838750666667, 932.9,  nan 
03/10/2017,18:54:50.975,1489172090.975,-5.633007500000,-173.838730500000, 937.5,  nan 
03/10/2017,18:54:58.294,1489172098.294,-5.633041833333,-173.838725500000, 941.9,  nan 
03/10/2017,18:55:05.826,1489172105.826,-5.633018166667,-173.838719833333, 946.2,  nan 
03/10/2017,18:55:13.032,1489172113.032,-5.633013000000,-173.838726500000, 950.4,  nan 
03/10/2017,18:55:20.351,1489172120.351,-5.633011000000,-173.838666333333, 954.8,  nan 
03/10/2017,18:55:27.882,1489172127.882,-5.632958333333,-173.838669333333, 958.7,  nan 
03/10/2017,18:55:35.419,1489172135.419,-5.632982500000,-173.838660833333, 963.3,  nan 
03/10/2017,18:55:42.743,1489172142.743,-5.632944500000,-173.838695833333, 967.3,  nan 
03/10/2017,18:55:50.162,1489172150.162,-5.632959666667,-173.838670833333, 971.7,  nan 
03/10/2017,18:55:57.480,1489172157.480,-5.632935000000,-173.838637833333, 976.5,  nan 
03/10/2017,18:56:05.011,1489172165.011,-5.632942166667,-173.838624333333, 980.8,  nan 
03/10/2017,18:56:12.334,1489172172.334,-5.632946333333,-173.838648833333, 985.3,  nan 
03/10/2017,18:56:19.761,1489172179.761,-5.632954500000,-173.838639166667, 989.7,  nan 
03/10/2017,18:56:27.290,1489172187.290,-5.632936000000,-173.838628666667, 994.3,  nan 
03/10/2017,18:56:34.611,1489172194.611,-5.632918666667,-173.838631333333, 998.3,  nan 
03/10/2017,18:56:42.141,1489172202.141,-5.632906333333,-173.838590333333,1003.2,  nan 
03/10/2017,18:56:49.464,1489172209.464,-5.632909333333,-173.838590500000,1007.3,  nan 
03/10/2017,18:56:56.884,1489172216.884,-5.632942333333,-173.838601500000,1011.8,  nan 
03/10/2017,18:57:04.204,1489172224.204,-5.632937000000,-173.838607166667,1015.9,  nan 
03/10/2017,18:57:11.735,1489172231.735,-5.632902833333,-173.838573833333,1020.6,  nan 
03/10/2017,18:57:19.052,1489172239.052,-5.632896333333,-173.838575500000,1024.6,  nan 
03/10/2017,18:57:26.480,1489172246.480,-5.632908500000,-173.838554166667,1029.3,  nan 
03/10/2017,18:57:33.804,1489172253.804,-5.632985166667,-173.838575833333,1033.4,  nan 
03/10/2017,18:57:41.331,1489172261.331,-5.632874500000,-173.838473000000,1037.9,  nan 
03/10/2017,18:57:48.652,1489172268.652,-5.632926666667,-173.838537666667,1042.0,  nan 
03/10/2017,18:57:56.183,1489172276.183,-5.632877000000,-173.838519000000,1046.6,  nan 
03/10/2017,18:58:03.389,1489172283.389,-5.632855000000,-173.838515333333,1050.6,  nan 
03/10/2017,18:58:10.929,1489172290.929,-5.632852666667,-173.838508666667,1055.0,  nan 
03/10/2017,18:58:18.468,1489172298.468,-5.632799500000,-173.838523500000,1059.3,  nan 
03/10/2017,18:58:33.206,1489172313.206,-5.632863500000,-173.838506500000,1067.5,  nan 
03/10/2017,18:58:40.518,1489172320.518,-5.632876333333,-173.838471333333,1071.9,  nan 
03/10/2017,18:58:48.052,1489172328.052,-5.632866666667,-173.838448166667,1075.7,  nan 
03/10/2017,18:58:55.370,1489172335.370,-5.632844833333,-173.838475666667,1080.4,  nan 
03/10/2017,18:59:02.904,1489172342.904,-5.632841833333,-173.838473833333,1084.8,  nan 
03/10/2017,18:59:10.117,1489172350.117,-5.632883166667,-173.838470166667,1088.8,  nan 
03/10/2017,18:59:17.648,1489172357.648,-5.632837333333,-173.838477166667,1092.9,  nan 
03/10/2017,18:59:24.970,1489172364.970,-5.632853333333,-173.838456666667,1097.2,  nan 
03/10/2017,18:59:32.498,1489172372.498,-5.632809833333,-173.838439666667,1101.3,  nan 
03/10/2017,18:59:39.814,1489172379.814,-5.632848500000,-173.838440333333,1105.5,  nan 
03/10/2017,18:59:47.246,1489172387.246,-5.632843833333,-173.838452166667,1109.9,  nan 
03/10/2017,18:59:54.559,1489172394.559,-5.632832833333,-173.838437833333,1113.9,  nan 